Overview Statistics Trail Chart Weather Telemetry Raw packets
 

This is the latest recevied weather packets stored in our database for station/object KG5APU. If no packets are shown the sender has not sent any weather packets the latest 10 day(s).

<< 53 54 55 56 57 58 >>
Time Temp. Humidity Pressure Rain* Wind** Luminosity Snow
1787814163 28.33° C 73% 1014.4 hPa 0 mm - 0 W/m² -
1787813560 28.33° C 73% 1014.6 hPa 0 mm - 0 W/m² -
1787812957 27.78° C 72% 1014.7 hPa 0 mm - 0 W/m² -
1787812354 27.78° C 71% 1014.6 hPa 0 mm - 0 W/m² -
1787811749 27.78° C 70% 1014.6 hPa 0 mm - 0 W/m² -
1787811145 27.78° C 70% 1014.4 hPa 0 mm - 0 W/m² -
1787810540 27.78° C 69% 1014.5 hPa 0 mm - 0 W/m² -
1787809941 27.78° C 69% 1014.4 hPa 0 mm - 0 W/m² -
1787809337 27.78° C 70% 1014.4 hPa 0 mm - 0 W/m² -
1787808734 28.33° C 68% 1014.5 hPa 0 mm - 0 W/m² -
1787808132 28.33° C 68% 1014.6 hPa 0 mm - 0 W/m² -
1787807536 28.89° C 68% 1014.5 hPa 0 mm - 0 W/m² -
1787806929 28.33° C 66% 1014.6 hPa 0 mm - 0 W/m² -
1787806329 28.89° C 65% 1014.6 hPa 0 mm - 0 W/m² -
1787805723 28.89° C 64% 1014.6 hPa 0 mm - 0 W/m² -
1787805120 28.89° C 63% 1014.5 hPa 0 mm - 0 W/m² -
1787804521 29.44° C 62% 1014.6 hPa 0 mm - 0 W/m² -
1787803921 30° C 61% 1014.6 hPa 0 mm - 0 W/m² -
1787803320 30° C 61% 1014.6 hPa 0 mm - 0 W/m² -
1787802720 29.44° C 60% 1014.7 hPa 0 mm - 0 W/m² -
1787802120 30° C 60% 1014.4 hPa 0 mm - 0 W/m² -
1787801517 30° C 59% 1014.4 hPa 0 mm - 0 W/m² -
1787800914 30° C 58% 1014.4 hPa 0 mm - 0 W/m² -
1787800309 30.56° C 56% 1014.1 hPa 0 mm - 0 W/m² -
1787799704 30.56° C 55% 1014.2 hPa 0 mm - 0 W/m² -

* Rain latest hour (hover to see other rain measurements)
** Current wind speed in m/s (hover to see current wind gust speed)